TimePDT,TemperatureF,Dew PointF,Humidity,Sea Level PressureIn,VisibilityMPH,Wind Direction,Wind SpeedMPH,Gust SpeedMPH,PrecipitationIn,Events,Conditions,WindDirDegrees,DateUTC
12:53 AM,55.9,48.0,75,29.99,10.0,Calm,Calm,-,N/A,,Clear,0,2012-03-24 07:53:00
2:06 AM,55.4,48.2,77,29.99,10.0,Calm,Calm,-,N/A,,Mostly Cloudy,0,2012-03-24 09:06:00
2:17 AM,55.4,48.2,77,29.99,10.0,Calm,Calm,-,N/A,,Mostly Cloudy,0,2012-03-24 09:17:00
2:53 AM,55.9,48.9,77,29.98,10.0,Calm,Calm,-,N/A,,Overcast,0,2012-03-24 09:53:00
3:53 AM,55.9,48.9,77,29.97,10.0,Calm,Calm,-,N/A,,Overcast,0,2012-03-24 10:53:00
4:53 AM,55.9,48.9,77,29.96,10.0,Calm,Calm,-,N/A,,Overcast,0,2012-03-24 11:53:00
5:53 AM,57.0,48.0,72,29.97,10.0,Calm,Calm,-,N/A,,Overcast,0,2012-03-24 12:53:00
6:06 AM,57.2,48.2,72,29.97,10.0,Calm,Calm,-,N/A,,Overcast,0,2012-03-24 13:06:00
6:53 AM,57.0,46.9,69,29.98,10.0,SE,3.5,-,N/A,,Overcast,130,2012-03-24 13:53:00
7:53 AM,57.0,46.9,69,29.99,10.0,East,4.6,-,N/A,,Overcast,90,2012-03-24 14:53:00
8:53 AM,57.9,46.9,67,29.99,10.0,Calm,Calm,-,N/A,,Mostly Cloudy,0,2012-03-24 15:53:00
9:53 AM,60.1,46.9,62,30.00,10.0,Calm,Calm,-,N/A,,Mostly Cloudy,0,2012-03-24 16:53:00
10:53 AM,62.1,46.9,58,30.00,10.0,Variable,3.5,-,N/A,,Mostly Cloudy,0,2012-03-24 17:53:00
11:48 AM,64.4,46.4,52,29.99,10.0,East,5.8,-,N/A,,Scattered Clouds,100,2012-03-24 18:48:00
11:53 AM,64.9,46.9,52,29.99,10.0,ESE,4.6,-,N/A,,Scattered Clouds,110,2012-03-24 18:53:00
12:53 PM,66.9,46.9,49,29.97,10.0,Variable,4.6,-,N/A,,Clear,0,2012-03-24 19:53:00
1:53 PM,66.9,46.9,49,29.94,10.0,South,8.1,-,N/A,,Partly Cloudy,190,2012-03-24 20:53:00
3:53 PM,68.0,46.9,47,29.91,10.0,West,6.9,-,N/A,,Clear,270,2012-03-24 22:53:00
4:53 PM,66.0,46.9,50,29.90,10.0,SSW,9.2,-,N/A,,Clear,200,2012-03-24 23:53:00
5:53 PM,63.0,46.9,56,29.91,10.0,SW,6.9,-,N/A,,Clear,220,2012-03-25 00:53:00
6:53 PM,60.1,48.0,64,29.91,10.0,Variable,6.9,-,N/A,,Clear,0,2012-03-25 01:53:00
7:53 PM,57.9,48.0,70,29.93,10.0,SSW,4.6,-,N/A,,Clear,200,2012-03-25 02:53:00
8:53 PM,57.0,48.9,74,29.94,10.0,South,4.6,-,N/A,,Clear,190,2012-03-25 03:53:00
9:53 PM,57.0,48.9,74,29.95,10.0,Calm,Calm,-,N/A,,Partly Cloudy,0,2012-03-25 04:53:00
10:04 PM,57.2,48.2,72,29.95,10.0,Variable,3.5,-,N/A,,Mostly Cloudy,0,2012-03-25 05:04:00
10:53 PM,57.0,48.0,72,29.96,10.0,Calm,Calm,-,N/A,,Mostly Cloudy,0,2012-03-25 05:53:00
11:03 PM,57.2,48.2,72,29.96,10.0,SSW,3.5,-,N/A,,Scattered Clouds,210,2012-03-25 06:03:00
11:11 PM,57.2,48.2,72,29.96,10.0,Calm,Calm,-,N/A,,Mostly Cloudy,0,2012-03-25 06:11:00
11:40 PM,57.2,48.2,72,29.96,10.0,Calm,Calm,-,N/A,,Scattered Clouds,0,2012-03-25 06:40:00
11:53 PM,57.0,48.0,72,29.96,10.0,Calm,Calm,-,N/A,,Scattered Clouds,0,2012-03-25 06:53:00